QTR32C OTHH-LIRF

Flight info

Callsign QTR32C
Flight time 5h 22m
Altitude 38000
Route TULUB B457 NARMI N697 LOSEL/N0486F400 N697 HIL T540 ENABI L550 NOVPA J981 DATOK T115 DARUR Q777 RASDA DCT ANIDE DCT RUPUM DCT KUGGI DCT TIGRA DCT VEGAN/N0494F410 DCT SOR/N0495F400 DCT TEA DCT SIPRO DCT LAT
Aircraft A359/H-SDE2E3GHIJ3J4J5LM1ORWXY/LB1D1

Departure

Time 2026-02-17 07:00
Airport Hamad International Airport (OTHH)

Arrival

Time 2026-02-17 12:23
Airport Rome–Fiumicino Leonardo da Vinci International Airport (LIRF)
Time Latitude Longitude Altitude Speed Heading
2026-02-17 06:24 25.26468 51.61310 36 ft 0 kts 248°
2026-02-17 06:48 25.26472 51.61321 36 ft 3 kts 248°
2026-02-17 06:48 25.26479 51.61342 35 ft 3 kts 248°
2026-02-17 06:48 25.26486 51.61362 34 ft 3 kts 247°
2026-02-17 06:49 25.26496 51.61379 32 ft 3 kts 217°
2026-02-17 06:49 25.26513 51.61389 34 ft 3 kts 188°
2026-02-17 06:49 25.26532 51.61390 35 ft 3 kts 167°
2026-02-17 06:49 25.26545 51.61386 35 ft 1 kts 158°
2026-02-17 06:50 25.26561 51.61378 34 ft 3 kts 158°
2026-02-17 06:50 25.26573 51.61373 34 ft 0 kts 158°
2026-02-17 06:52 25.26547 51.61384 36 ft 8 kts 158°
2026-02-17 06:52 25.26491 51.61409 33 ft 10 kts 158°
2026-02-17 06:53 25.26423 51.61443 36 ft 11 kts 148°
2026-02-17 06:53 25.26398 51.61520 36 ft 12 kts 76°
2026-02-17 06:53 25.26430 51.61608 36 ft 13 kts 68°
2026-02-17 06:53 25.26467 51.61710 36 ft 15 kts 68°
2026-02-17 06:54 25.26508 51.61823 36 ft 17 kts 68°
2026-02-17 06:54 25.26554 51.61948 35 ft 16 kts 68°
2026-02-17 06:54 25.26522 51.62042 34 ft 15 kts 150°
2026-02-17 06:55 25.26316 51.62135 35 ft 18 kts 158°
2026-02-17 06:55 25.26197 51.62188 36 ft 19 kts 158°
2026-02-17 06:55 25.26070 51.62245 36 ft 20 kts 159°
2026-02-17 06:55 25.25931 51.62304 35 ft 22 kts 159°
2026-02-17 06:56 25.25784 51.62370 35 ft 24 kts 158°
2026-02-17 06:56 25.25637 51.62434 34 ft 18 kts 158°
2026-02-17 06:56 25.25536 51.62482 35 ft 9 kts 148°
2026-02-17 06:56 25.25513 51.62534 34 ft 2 kts 85°
2026-02-17 06:57 25.25513 51.62535 34 ft 0 kts 82°
2026-02-17 06:57 25.25513 51.62536 34 ft 0 kts 82°
2026-02-17 06:57 25.25514 51.62537 34 ft 3 kts 82°
2026-02-17 06:57 25.25529 51.62590 33 ft 9 kts 68°
2026-02-17 06:58 25.25576 51.62643 33 ft 10 kts 19°
2026-02-17 06:58 25.25648 51.62635 33 ft 11 kts 339°
2026-02-17 06:58 25.25711 51.62605 32 ft 0 kts 338°
2026-02-17 06:59 25.25737 51.62593 32 ft 25 kts 338°
2026-02-17 06:59 25.26118 51.62426 33 ft 91 kts 338°
2026-02-17 06:59 25.26886 51.62085 30 ft 145 kts 339°
2026-02-17 07:00 25.27948 51.61609 265 ft 174 kts 335°
2026-02-17 07:00 25.29054 51.61047 942 ft 177 kts 334°
2026-02-17 07:00 25.30164 51.60406 1616 ft 181 kts 335°
2026-02-17 07:00 25.31304 51.59777 2009 ft 188 kts 341°
2026-02-17 07:01 25.32601 51.59279 2215 ft 206 kts 346°
2026-02-17 07:01 25.34055 51.59058 2395 ft 220 kts 13°
2026-02-17 07:01 25.35552 51.59620 2658 ft 235 kts 24°
2026-02-17 07:01 25.37112 51.60285 3111 ft 244 kts 21°
2026-02-17 07:02 25.38722 51.60869 3653 ft 250 kts 19°
2026-02-17 07:02 25.40415 51.61405 3926 ft 255 kts 16°
2026-02-17 07:02 25.42147 51.61901 4253 ft 259 kts 15°
2026-02-17 07:03 25.45673 51.62850 5455 ft 262 kts 14°
2026-02-17 07:03 25.47456 51.63318 6060 ft 263 kts 14°
2026-02-17 07:03 25.49245 51.63767 6651 ft 264 kts 13°
2026-02-17 07:03 25.51051 51.64199 7208 ft 266 kts 13°
2026-02-17 07:04 25.52862 51.64631 7775 ft 267 kts 13°
2026-02-17 07:04 25.54678 51.65067 8345 ft 268 kts 12°
2026-02-17 07:04 25.56504 51.65506 8907 ft 269 kts 12°
2026-02-17 07:04 25.58367 51.65736 9474 ft 271 kts 359°
2026-02-17 07:05 25.60237 51.65449 10044 ft 273 kts 350°
2026-02-17 07:05 25.62125 51.64997 10349 ft 283 kts 349°
2026-02-17 07:05 25.64068 51.64512 10564 ft 296 kts 349°
2026-02-17 07:05 25.66118 51.64005 10777 ft 308 kts 349°
2026-02-17 07:06 25.68249 51.63482 10989 ft 319 kts 349°
2026-02-17 07:06 25.70452 51.62946 11191 ft 330 kts 349°
2026-02-17 07:06 25.72717 51.62313 11370 ft 341 kts 343°
2026-02-17 07:07 25.77235 51.60304 11906 ft 355 kts 339°
2026-02-17 07:07 25.79511 51.59228 12291 ft 357 kts 339°
2026-02-17 07:07 25.81801 51.58142 12707 ft 359 kts 338°
2026-02-17 07:07 25.83981 51.56768 13072 ft 364 kts 325°
2026-02-17 07:08 25.85748 51.54726 13416 ft 372 kts 308°
2026-02-17 07:08 25.87077 51.52236 13826 ft 376 kts 302°
2026-02-17 07:08 25.88308 51.49664 14168 ft 378 kts 302°
2026-02-17 07:08 25.89539 51.47074 14503 ft 380 kts 302°
2026-02-17 07:09 25.90781 51.44478 14856 ft 381 kts 302°
2026-02-17 07:09 25.92032 51.41874 15204 ft 383 kts 302°
2026-02-17 07:09 25.93276 51.39292 15556 ft 384 kts 302°
2026-02-17 07:09 25.94540 51.36669 15922 ft 386 kts 302°
2026-02-17 07:10 25.95814 51.34029 16287 ft 387 kts 302°
2026-02-17 07:10 25.97092 51.31381 16652 ft 389 kts 302°
2026-02-17 07:10 25.98364 51.28726 17026 ft 390 kts 301°
2026-02-17 07:11 26.00877 51.23337 17724 ft 394 kts 301°
2026-02-17 07:11 26.02139 51.20629 18088 ft 396 kts 301°
2026-02-17 07:11 26.03411 51.17903 18418 ft 398 kts 301°
2026-02-17 07:11 26.04689 51.15165 18701 ft 400 kts 301°
2026-02-17 07:12 26.05976 51.12410 18964 ft 402 kts 301°
2026-02-17 07:12 26.07267 51.09642 19229 ft 405 kts 301°
2026-02-17 07:12 26.08571 51.06847 19492 ft 407 kts 301°
2026-02-17 07:12 26.09876 51.04049 19755 ft 409 kts 301°
2026-02-17 07:13 26.11174 51.01262 20001 ft 411 kts 301°
2026-02-17 07:13 26.12468 50.98407 20242 ft 414 kts 299°
2026-02-17 07:13 26.13688 50.95493 20497 ft 417 kts 297°
2026-02-17 07:13 26.14878 50.92538 20745 ft 419 kts 297°
2026-02-17 07:14 26.16063 50.89566 20988 ft 421 kts 297°
2026-02-17 07:14 26.17258 50.86584 21234 ft 423 kts 297°
2026-02-17 07:14 26.18465 50.83588 21482 ft 424 kts 297°
2026-02-17 07:15 26.20913 50.77573 21940 ft 428 kts 297°
2026-02-17 07:15 26.22149 50.74552 22167 ft 430 kts 297°
2026-02-17 07:15 26.23396 50.71507 22386 ft 432 kts 297°
2026-02-17 07:15 26.24623 50.68496 22596 ft 434 kts 296°
2026-02-17 07:16 26.25629 50.65301 22806 ft 439 kts 287°
2026-02-17 07:16 26.26284 50.61970 23011 ft 442 kts 284°
2026-02-17 07:16 26.26814 50.58588 23245 ft 444 kts 282°
2026-02-17 07:16 26.27273 50.55178 23452 ft 446 kts 281°
2026-02-17 07:17 26.27700 50.51747 23651 ft 448 kts 280°
2026-02-17 07:17 26.28119 50.48300 23832 ft 450 kts 280°
2026-02-17 07:17 26.28543 50.44839 24005 ft 451 kts 280°
2026-02-17 07:17 26.28973 50.41375 24182 ft 452 kts 281°
2026-02-17 07:18 26.29409 50.37910 24381 ft 452 kts 281°
2026-02-17 07:18 26.29915 50.34455 24548 ft 452 kts 285°
2026-02-17 07:18 26.30777 50.31091 24711 ft 451 kts 291°
2026-02-17 07:19 26.32965 50.24537 25045 ft 452 kts 294°
2026-02-17 07:19 26.34140 50.21280 25202 ft 453 kts 294°
2026-02-17 07:19 26.35332 50.18020 25373 ft 454 kts 294°
2026-02-17 07:19 26.36526 50.14760 25563 ft 455 kts 294°
2026-02-17 07:20 26.37719 50.11487 25727 ft 456 kts 294°
2026-02-17 07:20 26.38909 50.08201 25896 ft 458 kts 294°
2026-02-17 07:20 26.40082 50.04944 26073 ft 459 kts 294°
2026-02-17 07:20 26.41269 50.01637 26236 ft 460 kts 294°
2026-02-17 07:21 26.42458 49.98319 26424 ft 461 kts 294°
2026-02-17 07:21 26.43650 49.94988 26576 ft 463 kts 294°
2026-02-17 07:21 26.44845 49.91642 26756 ft 464 kts 293°
2026-02-17 07:21 26.46042 49.88289 26919 ft 465 kts 293°
2026-02-17 07:22 26.47239 49.84936 27089 ft 466 kts 293°
2026-02-17 07:22 26.48442 49.81563 27247 ft 468 kts 293°
2026-02-17 07:22 26.49586 49.78157 27418 ft 470 kts 289°
2026-02-17 07:23 26.51483 49.71149 27753 ft 472 kts 288°
2026-02-17 07:23 26.53276 49.64068 28088 ft 475 kts 287°
2026-02-17 07:23 26.54166 49.60507 28244 ft 476 kts 287°
2026-02-17 07:24 26.55059 49.56934 28409 ft 478 kts 287°
2026-02-17 07:24 26.55941 49.53408 28570 ft 479 kts 287°
2026-02-17 07:24 26.56839 49.49823 28723 ft 480 kts 287°
2026-02-17 07:24 26.57743 49.46223 28889 ft 482 kts 287°
2026-02-17 07:25 26.58647 49.42614 29051 ft 483 kts 287°
2026-02-17 07:25 26.59554 49.38997 29212 ft 484 kts 287°
2026-02-17 07:25 26.60462 49.35372 29370 ft 485 kts 287°
2026-02-17 07:25 26.61370 49.31742 29565 ft 485 kts 287°
2026-02-17 07:26 26.62279 49.28101 29722 ft 487 kts 287°
2026-02-17 07:26 26.63190 49.24452 29876 ft 488 kts 287°
2026-02-17 07:26 26.64100 49.20796 30025 ft 489 kts 287°
2026-02-17 07:27 26.65927 49.13449 30302 ft 492 kts 287°
2026-02-17 07:27 26.66843 49.09762 30424 ft 493 kts 286°
2026-02-17 07:27 26.67759 49.06068 30567 ft 493 kts 286°
2026-02-17 07:27 26.68676 49.02363 30712 ft 494 kts 286°
2026-02-17 07:28 26.69595 48.98650 30846 ft 495 kts 286°
2026-02-17 07:28 26.70500 48.94985 31005 ft 496 kts 286°
2026-02-17 07:28 26.71419 48.91260 31169 ft 496 kts 286°
2026-02-17 07:28 26.72336 48.87541 31301 ft 497 kts 286°
2026-02-17 07:29 26.73256 48.83805 31427 ft 498 kts 286°
2026-02-17 07:29 26.74176 48.80061 31547 ft 499 kts 286°
2026-02-17 07:29 26.75097 48.76312 31675 ft 500 kts 286°
2026-02-17 07:29 26.75930 48.72538 31835 ft 500 kts 281°
2026-02-17 07:30 26.76354 48.68679 32021 ft 500 kts 274°
2026-02-17 07:30 26.76419 48.64779 32211 ft 500 kts 271°
2026-02-17 07:30 26.76380 48.60893 32412 ft 499 kts 269°
2026-02-17 07:31 26.76166 48.53138 32798 ft 498 kts 269°
2026-02-17 07:31 26.76040 48.49259 33008 ft 498 kts 269°
2026-02-17 07:31 26.75959 48.46696 33140 ft 497 kts 269°
2026-02-17 07:31 26.75839 48.42830 33355 ft 496 kts 269°
2026-02-17 07:32 26.75725 48.38975 33580 ft 496 kts 269°
2026-02-17 07:32 26.75580 48.33871 33868 ft 495 kts 269°
2026-02-17 07:32 26.75472 48.30020 34102 ft 494 kts 269°
2026-02-17 07:32 26.75400 48.27421 34247 ft 494 kts 269°
2026-02-17 07:33 26.75293 48.23590 34470 ft 492 kts 269°
2026-02-17 07:33 26.75187 48.19822 34738 ft 490 kts 268°
2026-02-17 07:33 26.75079 48.16015 35014 ft 488 kts 268°
2026-02-17 07:33 26.74970 48.12230 35267 ft 486 kts 268°
2026-02-17 07:34 26.74860 48.08454 35497 ft 485 kts 268°
2026-02-17 07:34 26.74749 48.04685 35743 ft 484 kts 268°
2026-02-17 07:34 26.74637 48.00924 35992 ft 482 kts 268°
2026-02-17 07:35 26.74412 47.93453 36529 ft 478 kts 268°
2026-02-17 07:35 26.74310 47.89741 36758 ft 477 kts 270°
2026-02-17 07:35 26.74395 47.86038 36986 ft 476 kts 272°
2026-02-17 07:35 26.74543 47.82335 37220 ft 475 kts 273°
2026-02-17 07:36 26.74718 47.78645 37456 ft 473 kts 273°
2026-02-17 07:36 26.74904 47.74980 37721 ft 471 kts 273°
2026-02-17 07:36 26.75094 47.71326 37964 ft 470 kts 273°
2026-02-17 07:36 26.75282 47.67677 38148 ft 470 kts 273°
2026-02-17 07:37 26.75469 47.64027 38180 ft 470 kts 273°
2026-02-17 07:37 26.75831 47.56766 38182 ft 470 kts 273°
2026-02-17 07:38 26.76186 47.49466 38183 ft 470 kts 273°
2026-02-17 07:38 26.76538 47.42155 38181 ft 470 kts 273°
2026-02-17 07:39 26.77722 47.31273 38179 ft 470 kts 279°
2026-02-17 07:39 26.78823 47.24071 38182 ft 470 kts 279°
2026-02-17 07:40 26.79948 47.16868 38179 ft 470 kts 279°
2026-02-17 07:40 26.81061 47.09669 38181 ft 469 kts 279°
2026-02-17 07:41 26.82162 47.02469 38181 ft 469 kts 279°
2026-02-17 07:41 26.83258 46.95266 38181 ft 469 kts 279°
2026-02-17 07:42 26.84349 46.88061 38184 ft 469 kts 279°
2026-02-17 07:43 26.85974 46.77296 38182 ft 469 kts 278°
2026-02-17 07:43 26.87057 46.70088 38181 ft 469 kts 278°
2026-02-17 07:44 26.88136 46.62881 38179 ft 469 kts 278°
2026-02-17 07:44 26.89211 46.55675 38180 ft 469 kts 278°
2026-02-17 07:45 26.90283 46.48468 38178 ft 469 kts 278°
2026-02-17 07:45 26.91346 46.41295 38179 ft 469 kts 278°
2026-02-17 07:46 26.92413 46.34086 38178 ft 469 kts 278°
2026-02-17 07:46 26.93483 46.26857 38177 ft 469 kts 278°
2026-02-17 07:47 26.95077 46.16038 38175 ft 469 kts 278°
2026-02-17 07:47 26.96136 46.08817 38179 ft 469 kts 278°
2026-02-17 07:48 26.97191 46.01597 38180 ft 469 kts 278°
2026-02-17 07:48 26.98237 45.94413 38177 ft 469 kts 278°
2026-02-17 07:49 26.99285 45.87183 38177 ft 469 kts 278°
2026-02-17 07:49 27.00328 45.79960 38176 ft 469 kts 278°
2026-02-17 07:50 27.01368 45.72735 38176 ft 469 kts 278°
2026-02-17 07:51 27.02915 45.61942 38177 ft 469 kts 278°
2026-02-17 07:51 27.03948 45.54714 38176 ft 469 kts 278°
2026-02-17 07:52 27.04976 45.47496 38175 ft 469 kts 278°
2026-02-17 07:52 27.05960 45.40265 38177 ft 468 kts 277°
2026-02-17 07:53 27.06754 45.33009 38174 ft 468 kts 276°
2026-02-17 07:53 27.07516 45.25749 38172 ft 468 kts 276°
2026-02-17 07:54 27.08695 45.14914 38171 ft 468 kts 276°
2026-02-17 07:55 27.09895 45.04040 38170 ft 468 kts 276°
2026-02-17 07:55 27.10689 44.96797 38173 ft 468 kts 276°
2026-02-17 07:56 27.11479 44.89548 38171 ft 467 kts 276°
2026-02-17 07:56 27.12259 44.82346 38174 ft 467 kts 276°
2026-02-17 07:57 27.13040 44.75110 38177 ft 467 kts 276°
2026-02-17 07:57 27.13822 44.67863 38172 ft 467 kts 276°
2026-02-17 07:58 27.14596 44.60624 38179 ft 467 kts 276°
2026-02-17 07:58 27.15367 44.53372 38168 ft 467 kts 276°
2026-02-17 07:59 27.16518 44.42491 38168 ft 468 kts 276°
2026-02-17 07:59 27.17284 44.35231 38168 ft 467 kts 276°
2026-02-17 08:00 27.18032 44.28032 38169 ft 467 kts 276°
2026-02-17 08:00 27.18777 44.20779 38173 ft 467 kts 276°
2026-02-17 08:01 27.19520 44.13528 38166 ft 467 kts 276°
2026-02-17 08:01 27.20260 44.06278 38162 ft 467 kts 276°
2026-02-17 08:02 27.20998 43.99023 38168 ft 467 kts 276°
2026-02-17 08:03 27.22097 43.88143 38163 ft 467 kts 276°
2026-02-17 08:03 27.22825 43.80884 38161 ft 468 kts 276°
2026-02-17 08:04 27.23546 43.73666 38152 ft 468 kts 276°
2026-02-17 08:04 27.24273 43.66354 38156 ft 468 kts 276°
2026-02-17 08:05 27.24988 43.59134 38162 ft 468 kts 276°
2026-02-17 08:05 27.25704 43.51867 38156 ft 468 kts 276°
2026-02-17 08:06 27.26421 43.44548 38156 ft 468 kts 276°
2026-02-17 08:06 27.27124 43.37330 38158 ft 468 kts 276°
2026-02-17 08:07 27.28179 43.26429 38150 ft 468 kts 276°
2026-02-17 08:07 27.28879 43.19156 38161 ft 468 kts 276°
2026-02-17 08:08 27.29574 43.11880 38159 ft 467 kts 276°
2026-02-17 08:08 27.30266 43.04609 38156 ft 468 kts 276°
2026-02-17 08:09 27.30953 42.97336 38157 ft 468 kts 276°
2026-02-17 08:09 27.31637 42.90059 38157 ft 468 kts 275°
2026-02-17 08:10 27.32317 42.82789 38160 ft 468 kts 275°
2026-02-17 08:11 27.33331 42.71868 38154 ft 468 kts 275°
2026-02-17 08:11 27.33998 42.64629 38150 ft 468 kts 275°
2026-02-17 08:12 27.34665 42.57349 38157 ft 468 kts 275°
2026-02-17 08:12 27.35329 42.50066 38154 ft 468 kts 275°
2026-02-17 08:13 27.35989 42.42782 38287 ft 468 kts 275°
2026-02-17 08:13 27.36317 42.39147 38543 ft 466 kts 275°
2026-02-17 08:13 27.36644 42.35518 38818 ft 464 kts 275°
2026-02-17 08:13 27.36962 42.31961 38994 ft 463 kts 275°
2026-02-17 08:14 27.37284 42.28348 39127 ft 463 kts 275°
2026-02-17 08:14 27.37605 42.24745 39239 ft 464 kts 275°
2026-02-17 08:14 27.37925 42.21129 39377 ft 464 kts 275°
2026-02-17 08:15 27.38562 42.13927 39754 ft 461 kts 275°
2026-02-17 08:15 27.38877 42.10345 39902 ft 460 kts 275°
2026-02-17 08:15 27.39192 42.06763 40027 ft 460 kts 275°
2026-02-17 08:15 27.39505 42.03182 40132 ft 460 kts 274°
2026-02-17 08:16 27.40131 41.95993 40153 ft 460 kts 274°
2026-02-17 08:16 27.40750 41.88835 40158 ft 459 kts 274°
2026-02-17 08:17 27.41362 41.81734 40171 ft 459 kts 274°
2026-02-17 08:17 27.41977 41.74583 40170 ft 458 kts 275°
2026-02-17 08:18 27.43415 41.67606 40180 ft 461 kts 289°
2026-02-17 08:19 27.48072 41.58088 40182 ft 465 kts 299°
2026-02-17 08:19 27.51537 41.51950 40173 ft 464 kts 299°
2026-02-17 08:20 27.54993 41.45823 40170 ft 463 kts 299°
2026-02-17 08:20 27.58421 41.39672 40158 ft 463 kts 299°
2026-02-17 08:21 27.61833 41.33507 40150 ft 463 kts 298°
2026-02-17 08:21 27.64661 41.28388 40146 ft 462 kts 298°
2026-02-17 08:22 27.68612 41.21225 40147 ft 462 kts 298°
2026-02-17 08:22 27.71455 41.16066 40146 ft 462 kts 298°
2026-02-17 08:23 27.76518 41.06866 40146 ft 461 kts 298°
2026-02-17 08:23 27.79902 41.00714 40146 ft 461 kts 298°
2026-02-17 08:24 27.83280 40.94551 40148 ft 461 kts 298°
2026-02-17 08:24 27.86656 40.88382 40153 ft 461 kts 297°
2026-02-17 08:25 27.90026 40.82219 40152 ft 461 kts 297°
2026-02-17 08:25 27.93398 40.76043 40167 ft 461 kts 297°
2026-02-17 08:26 27.96746 40.69905 40151 ft 461 kts 297°
2026-02-17 08:27 28.01784 40.60649 40148 ft 460 kts 297°
2026-02-17 08:27 28.05140 40.54474 40148 ft 460 kts 297°
2026-02-17 08:28 28.08494 40.48293 40146 ft 460 kts 297°
2026-02-17 08:28 28.11846 40.42107 40142 ft 460 kts 297°
2026-02-17 08:29 28.15190 40.35926 40141 ft 460 kts 297°
2026-02-17 08:29 28.18532 40.29739 40134 ft 460 kts 297°
2026-02-17 08:30 28.21850 40.23589 40142 ft 460 kts 296°
2026-02-17 08:30 28.25188 40.17394 40132 ft 460 kts 296°
2026-02-17 08:31 28.30287 40.08160 40126 ft 463 kts 301°
2026-02-17 08:31 28.34249 40.02365 40131 ft 465 kts 303°
2026-02-17 08:32 28.38317 39.96642 40118 ft 466 kts 303°
2026-02-17 08:32 28.42403 39.90924 40114 ft 466 kts 303°
2026-02-17 08:33 28.46480 39.85196 40114 ft 465 kts 303°
2026-02-17 08:33 28.50543 39.79467 40123 ft 465 kts 302°
2026-02-17 08:34 28.54571 39.73777 40101 ft 465 kts 302°
2026-02-17 08:35 28.60651 39.65163 40092 ft 465 kts 302°
2026-02-17 08:35 28.64703 39.59415 40094 ft 465 kts 302°
2026-02-17 08:36 28.68745 39.53676 40091 ft 464 kts 302°
2026-02-17 08:36 28.72785 39.47930 40084 ft 464 kts 302°
2026-02-17 08:37 28.76826 39.42176 40085 ft 464 kts 302°
2026-02-17 08:37 28.80860 39.36423 40079 ft 464 kts 302°
2026-02-17 08:38 28.84866 39.30703 40082 ft 464 kts 302°
2026-02-17 08:38 28.88893 39.24945 40073 ft 464 kts 302°
2026-02-17 08:39 28.94929 39.16300 40085 ft 464 kts 301°
2026-02-17 08:39 28.98947 39.10537 40067 ft 463 kts 301°
2026-02-17 08:40 29.02953 39.04780 40063 ft 463 kts 301°
2026-02-17 08:40 29.06921 38.98986 40053 ft 460 kts 297°
2026-02-17 08:41 29.09853 38.92644 40048 ft 445 kts 283°
2026-02-17 08:41 29.11038 38.85870 40052 ft 432 kts 268°
2026-02-17 08:42 29.11137 38.79022 40041 ft 429 kts 265°
2026-02-17 08:43 29.11008 38.68788 40034 ft 429 kts 265°
2026-02-17 08:43 29.10941 38.61956 40044 ft 430 kts 265°
2026-02-17 08:44 29.10896 38.55112 40039 ft 430 kts 265°
2026-02-17 08:44 29.10854 38.48315 40034 ft 430 kts 265°
2026-02-17 08:45 29.10808 38.41483 40030 ft 430 kts 265°
2026-02-17 08:45 29.10759 38.34655 40030 ft 429 kts 265°
2026-02-17 08:46 29.10704 38.27819 40030 ft 429 kts 265°
2026-02-17 08:46 29.10642 38.20977 40031 ft 429 kts 265°
2026-02-17 08:47 29.10548 38.10795 40020 ft 427 kts 264°
2026-02-17 08:47 29.10480 38.04001 40024 ft 427 kts 264°
2026-02-17 08:48 29.10409 37.97292 40027 ft 428 kts 265°
2026-02-17 08:48 29.10335 37.90479 40022 ft 428 kts 264°
2026-02-17 08:49 29.10258 37.83679 40021 ft 427 kts 264°
2026-02-17 08:49 29.10177 37.76925 40025 ft 427 kts 264°
2026-02-17 08:50 29.10093 37.70122 40037 ft 427 kts 264°
2026-02-17 08:51 29.09962 37.59953 40023 ft 426 kts 264°
2026-02-17 08:51 29.09869 37.53185 40022 ft 425 kts 264°
2026-02-17 08:52 29.09789 37.46424 40038 ft 425 kts 264°
2026-02-17 08:52 29.09745 37.39716 40024 ft 424 kts 264°
2026-02-17 08:53 29.09700 37.32970 40013 ft 424 kts 264°
2026-02-17 08:53 29.09646 37.26215 40030 ft 426 kts 264°
2026-02-17 08:54 29.09587 37.19434 40037 ft 425 kts 264°
2026-02-17 08:54 29.09525 37.12678 40041 ft 425 kts 264°
2026-02-17 08:55 29.09424 37.02587 40046 ft 425 kts 264°
2026-02-17 08:55 29.09353 36.95833 40043 ft 424 kts 264°
2026-02-17 08:56 29.09279 36.89096 40043 ft 423 kts 263°
2026-02-17 08:56 29.09201 36.82372 40039 ft 423 kts 263°
2026-02-17 08:57 29.09120 36.75641 40042 ft 423 kts 263°
2026-02-17 08:57 29.09038 36.68925 40038 ft 422 kts 263°
2026-02-17 08:58 29.08950 36.62228 40023 ft 421 kts 263°
2026-02-17 08:59 29.08810 36.52193 40031 ft 423 kts 263°
2026-02-17 08:59 29.08711 36.45481 40032 ft 421 kts 263°
2026-02-17 09:00 29.08537 36.38798 40028 ft 420 kts 262°
2026-02-17 09:00 29.08335 36.32122 40029 ft 420 kts 262°
2026-02-17 09:01 29.08140 36.25453 40025 ft 420 kts 262°
2026-02-17 09:01 29.07951 36.18794 40019 ft 419 kts 262°
2026-02-17 09:02 29.07761 36.12141 40019 ft 418 kts 262°
2026-02-17 09:02 29.07567 36.05494 40020 ft 418 kts 262°
2026-02-17 09:03 29.07272 35.95572 40017 ft 418 kts 262°
2026-02-17 09:03 29.07070 35.88929 40013 ft 420 kts 262°
2026-02-17 09:04 29.06862 35.82244 40015 ft 421 kts 262°
2026-02-17 09:04 29.06652 35.75542 40018 ft 421 kts 262°
2026-02-17 09:05 29.06441 35.68856 40017 ft 420 kts 262°
2026-02-17 09:05 29.06225 35.62181 40016 ft 420 kts 262°
2026-02-17 09:06 29.06005 35.55512 40016 ft 420 kts 262°
2026-02-17 09:07 29.05672 35.45545 40015 ft 419 kts 261°
2026-02-17 09:07 29.05453 35.39120 40020 ft 419 kts 261°
2026-02-17 09:08 29.05222 35.32472 40022 ft 419 kts 261°
2026-02-17 09:08 29.04989 35.25818 40013 ft 418 kts 261°
2026-02-17 09:09 29.04792 35.20294 40010 ft 418 kts 261°
2026-02-17 09:09 29.04592 35.14769 40016 ft 419 kts 261°
2026-02-17 09:10 29.04309 35.07027 40015 ft 419 kts 261°
2026-02-17 09:10 29.04104 35.01450 40004 ft 419 kts 261°
2026-02-17 09:11 29.03733 34.91529 39999 ft 417 kts 261°
2026-02-17 09:11 29.03482 34.84907 40013 ft 417 kts 261°
2026-02-17 09:12 29.03418 34.78265 40019 ft 422 kts 266°
2026-02-17 09:12 29.04622 34.71578 40025 ft 439 kts 280°
2026-02-17 09:13 29.07359 34.65224 40013 ft 453 kts 291°
2026-02-17 09:13 29.09207 34.62253 40018 ft 464 kts 298°
2026-02-17 09:13 29.11336 34.59445 40019 ft 469 kts 301°
2026-02-17 09:14 29.15928 34.54062 40024 ft 475 kts 304°
2026-02-17 09:15 29.22997 34.46166 40059 ft 475 kts 304°
2026-02-17 09:15 29.27677 34.40879 40040 ft 471 kts 303°
2026-02-17 09:16 29.32321 34.35580 40054 ft 470 kts 303°
2026-02-17 09:16 29.36944 34.30285 40061 ft 470 kts 303°
2026-02-17 09:17 29.41567 34.24982 40061 ft 470 kts 303°
2026-02-17 09:17 29.46190 34.19677 40069 ft 470 kts 303°
2026-02-17 09:18 29.50801 34.14384 40059 ft 468 kts 302°
2026-02-17 09:18 29.55374 34.09124 40061 ft 468 kts 302°
2026-02-17 09:19 29.62268 34.01178 40060 ft 468 kts 302°
2026-02-17 09:19 29.66862 33.95874 40085 ft 468 kts 302°
2026-02-17 09:20 29.71444 33.90583 40062 ft 465 kts 302°
2026-02-17 09:20 29.76006 33.85304 40064 ft 464 kts 302°
2026-02-17 09:21 29.80558 33.80025 40064 ft 464 kts 302°
2026-02-17 09:21 29.85108 33.74743 40065 ft 464 kts 301°
2026-02-17 09:22 29.89646 33.69467 40064 ft 464 kts 301°
2026-02-17 09:23 29.96422 33.61584 40061 ft 462 kts 301°
2026-02-17 09:23 30.00937 33.56317 40063 ft 461 kts 301°
2026-02-17 09:24 30.05447 33.51049 40068 ft 461 kts 301°
2026-02-17 09:24 30.09950 33.45782 40065 ft 461 kts 301°
2026-02-17 09:25 30.14406 33.40564 40060 ft 461 kts 301°
2026-02-17 09:25 30.18912 33.35279 40061 ft 461 kts 301°
2026-02-17 09:26 30.22517 33.31046 40067 ft 461 kts 301°
2026-02-17 09:26 30.26986 33.25793 40064 ft 461 kts 301°
2026-02-17 09:27 30.33697 33.17891 40061 ft 461 kts 300°
2026-02-17 09:27 30.38189 33.12594 40094 ft 460 kts 300°
2026-02-17 09:28 30.42674 33.07296 40064 ft 460 kts 300°
2026-02-17 09:28 30.47155 33.01992 40065 ft 460 kts 300°
2026-02-17 09:29 30.51637 32.96682 40061 ft 460 kts 300°
2026-02-17 09:29 30.56087 32.91403 40062 ft 460 kts 300°
2026-02-17 09:30 30.62793 32.83438 40058 ft 459 kts 299°
2026-02-17 09:31 30.69478 32.75478 40059 ft 459 kts 299°
2026-02-17 09:31 30.73933 32.70162 40107 ft 459 kts 299°
2026-02-17 09:32 30.78389 32.64839 40053 ft 459 kts 299°
2026-02-17 09:32 30.82840 32.59513 40056 ft 459 kts 298°
2026-02-17 09:33 30.87294 32.54175 40054 ft 460 kts 298°
2026-02-17 09:33 30.91754 32.48825 40048 ft 460 kts 298°
2026-02-17 09:34 30.96182 32.43507 40050 ft 460 kts 298°
2026-02-17 09:35 31.02860 32.35471 40045 ft 460 kts 298°
2026-02-17 09:35 31.07311 32.30102 40049 ft 460 kts 298°
2026-02-17 09:36 31.11767 32.24720 40050 ft 461 kts 299°
2026-02-17 09:36 31.16231 32.19320 40047 ft 462 kts 299°
2026-02-17 09:37 31.20669 32.13948 40048 ft 463 kts 299°
2026-02-17 09:37 31.25138 32.08531 40045 ft 462 kts 299°
2026-02-17 09:38 31.29598 32.03113 40044 ft 463 kts 299°
2026-02-17 09:38 31.34049 31.97699 40042 ft 463 kts 299°
2026-02-17 09:39 31.40752 31.89534 40038 ft 463 kts 299°
2026-02-17 09:39 31.45152 31.84165 40037 ft 463 kts 299°
2026-02-17 09:40 31.49609 31.78713 40064 ft 464 kts 300°
2026-02-17 09:40 31.54068 31.73254 40034 ft 463 kts 300°
2026-02-17 09:41 31.58520 31.67798 40034 ft 463 kts 300°
2026-02-17 09:41 31.62941 31.62371 40029 ft 463 kts 300°
2026-02-17 09:42 31.67480 31.56971 40028 ft 472 kts 305°
2026-02-17 09:42 31.70119 31.54574 40029 ft 488 kts 313°
2026-02-17 09:43 31.76388 31.50932 40039 ft 513 kts 326°
2026-02-17 09:43 31.83170 31.48086 40030 ft 520 kts 329°
2026-02-17 09:44 31.90042 31.45387 40023 ft 520 kts 329°
2026-02-17 09:44 31.96886 31.42628 40022 ft 519 kts 328°
2026-02-17 09:45 32.03703 31.39810 40030 ft 518 kts 328°
2026-02-17 09:45 32.10507 31.36970 40027 ft 519 kts 328°
2026-02-17 09:46 32.17275 31.34142 40017 ft 519 kts 328°
2026-02-17 09:46 32.24082 31.31297 40017 ft 519 kts 328°
2026-02-17 09:47 32.30454 31.28275 40015 ft 506 kts 321°
2026-02-17 09:47 32.33571 31.26370 40013 ft 502 kts 319°
2026-02-17 09:47 32.39642 31.22333 40018 ft 500 kts 319°
2026-02-17 09:48 32.45663 31.18197 40007 ft 500 kts 319°
2026-02-17 09:48 32.51657 31.14098 40004 ft 501 kts 319°
2026-02-17 09:49 32.57702 31.09988 40005 ft 501 kts 319°
2026-02-17 09:49 32.63752 31.05880 40000 ft 500 kts 319°
2026-02-17 09:50 32.69767 31.01791 39999 ft 500 kts 319°
2026-02-17 09:51 32.78821 30.95620 40016 ft 500 kts 320°
2026-02-17 09:51 32.84850 30.91501 39997 ft 499 kts 320°
2026-02-17 09:52 32.90862 30.87389 39989 ft 498 kts 321°
2026-02-17 09:52 32.96867 30.83275 39987 ft 498 kts 321°
2026-02-17 09:53 33.02869 30.79157 39987 ft 498 kts 321°
2026-02-17 09:53 33.08864 30.75036 39980 ft 497 kts 321°
2026-02-17 09:54 33.14859 30.70909 39982 ft 497 kts 321°
2026-02-17 09:54 33.20853 30.66775 39978 ft 497 kts 321°
2026-02-17 09:55 33.29845 30.60563 39971 ft 497 kts 321°
2026-02-17 09:55 33.35838 30.56414 39971 ft 497 kts 321°
2026-02-17 09:56 33.41786 30.52291 39971 ft 497 kts 321°
2026-02-17 09:56 33.47773 30.48132 39974 ft 497 kts 321°
2026-02-17 09:57 33.53748 30.43976 39966 ft 497 kts 321°
2026-02-17 09:57 33.59740 30.39801 39996 ft 497 kts 321°
2026-02-17 09:58 33.64698 30.36343 39965 ft 495 kts 321°
2026-02-17 09:59 33.73623 30.30104 39978 ft 494 kts 321°
2026-02-17 09:59 33.79567 30.25939 39955 ft 494 kts 321°
2026-02-17 10:00 33.85509 30.21769 39950 ft 494 kts 321°
2026-02-17 10:00 33.91448 30.17595 39952 ft 494 kts 321°
2026-02-17 10:01 33.97382 30.13417 39943 ft 494 kts 321°
2026-02-17 10:01 34.03318 30.09232 39959 ft 491 kts 321°
2026-02-17 10:02 34.09130 30.05135 39936 ft 485 kts 321°
2026-02-17 10:02 34.14880 30.00909 39935 ft 478 kts 316°
2026-02-17 10:03 34.19748 29.95631 39933 ft 466 kts 306°
2026-02-17 10:03 34.21984 29.92805 39925 ft 465 kts 305°
2026-02-17 10:03 34.26353 29.87050 39925 ft 464 kts 304°
2026-02-17 10:04 34.30701 29.81268 39932 ft 464 kts 304°
2026-02-17 10:04 34.35021 29.75560 39919 ft 462 kts 305°
2026-02-17 10:05 34.39377 29.69821 39914 ft 463 kts 305°
2026-02-17 10:05 34.43733 29.64080 39915 ft 463 kts 305°
2026-02-17 10:06 34.48088 29.58331 39911 ft 463 kts 305°
2026-02-17 10:07 34.54609 29.49703 39908 ft 460 kts 305°
2026-02-17 10:07 34.58923 29.43985 39901 ft 459 kts 305°
2026-02-17 10:08 34.63233 29.38258 39898 ft 459 kts 305°
2026-02-17 10:08 34.67537 29.32529 39892 ft 459 kts 305°
2026-02-17 10:09 34.71837 29.26798 39891 ft 459 kts 305°
2026-02-17 10:09 34.76103 29.21105 39890 ft 456 kts 304°
2026-02-17 10:10 34.80389 29.15378 39883 ft 454 kts 304°
2026-02-17 10:10 34.84632 29.09693 39881 ft 454 kts 304°
2026-02-17 10:11 34.90964 29.01190 39875 ft 454 kts 304°
2026-02-17 10:11 34.95199 28.95494 39899 ft 453 kts 304°
2026-02-17 10:12 34.99429 28.89799 39863 ft 451 kts 304°
2026-02-17 10:12 35.03639 28.84119 39862 ft 451 kts 304°
2026-02-17 10:13 35.07838 28.78425 39861 ft 450 kts 303°
2026-02-17 10:13 35.11629 28.72416 39859 ft 445 kts 298°
2026-02-17 10:14 35.15218 28.66317 39886 ft 444 kts 298°
2026-02-17 10:15 35.20558 28.57103 39849 ft 442 kts 297°
2026-02-17 10:15 35.24127 28.50951 39846 ft 442 kts 297°
2026-02-17 10:16 35.27672 28.44845 39849 ft 442 kts 297°
2026-02-17 10:16 35.31238 28.38698 39838 ft 442 kts 297°
2026-02-17 10:17 35.34791 28.32562 39834 ft 441 kts 297°
2026-02-17 10:17 35.38330 28.26440 39823 ft 439 kts 297°
2026-02-17 10:18 35.41861 28.20317 39824 ft 439 kts 297°
2026-02-17 10:18 35.45388 28.14188 39820 ft 440 kts 297°
2026-02-17 10:19 35.50682 28.04974 39820 ft 440 kts 297°
2026-02-17 10:19 35.54215 27.98812 39807 ft 441 kts 297°
2026-02-17 10:20 35.57739 27.92654 39807 ft 441 kts 297°
2026-02-17 10:20 35.61261 27.86490 39807 ft 441 kts 297°
2026-02-17 10:21 35.64760 27.80356 39796 ft 441 kts 297°
2026-02-17 10:21 35.68279 27.74173 39796 ft 441 kts 297°
2026-02-17 10:22 35.71792 27.67991 39788 ft 441 kts 297°
2026-02-17 10:23 35.77031 27.58751 39780 ft 441 kts 297°
2026-02-17 10:23 35.80539 27.52548 39782 ft 441 kts 297°
2026-02-17 10:24 35.84052 27.46324 39796 ft 444 kts 297°
2026-02-17 10:24 35.87582 27.40060 39775 ft 445 kts 297°
2026-02-17 10:25 35.91119 27.33777 39764 ft 445 kts 297°
2026-02-17 10:25 35.94650 27.27493 39766 ft 445 kts 297°
2026-02-17 10:26 35.98175 27.21207 39757 ft 445 kts 297°
2026-02-17 10:26 36.01695 27.14915 39763 ft 445 kts 297°
2026-02-17 10:27 36.06976 27.05456 39754 ft 446 kts 297°
2026-02-17 10:27 36.10472 26.99181 39754 ft 445 kts 297°
2026-02-17 10:28 36.14010 26.92819 39745 ft 445 kts 297°
2026-02-17 10:28 36.17490 26.86547 39764 ft 445 kts 297°
2026-02-17 10:29 36.20997 26.80213 39746 ft 446 kts 297°
2026-02-17 10:29 36.24510 26.73860 39736 ft 447 kts 297°
2026-02-17 10:30 36.28021 26.67501 39731 ft 447 kts 297°
2026-02-17 10:31 36.33281 26.57950 39725 ft 447 kts 297°
2026-02-17 10:31 36.36779 26.51584 39728 ft 445 kts 297°
2026-02-17 10:32 36.40267 26.45225 39718 ft 445 kts 297°
2026-02-17 10:32 36.43747 26.38866 39720 ft 445 kts 297°
2026-02-17 10:33 36.47218 26.32510 39714 ft 445 kts 297°
2026-02-17 10:33 36.50688 26.26147 39715 ft 445 kts 297°
2026-02-17 10:34 36.54149 26.19787 39710 ft 444 kts 297°
2026-02-17 10:34 36.57603 26.13430 39705 ft 443 kts 297°
2026-02-17 10:35 36.62770 26.03896 39702 ft 443 kts 297°
2026-02-17 10:35 36.66214 25.97528 39694 ft 443 kts 297°
2026-02-17 10:36 36.69651 25.91159 39696 ft 442 kts 297°
2026-02-17 10:36 36.73077 25.84799 39688 ft 441 kts 297°
2026-02-17 10:37 36.76473 25.78482 39680 ft 441 kts 297°
2026-02-17 10:37 36.79889 25.72117 39673 ft 441 kts 297°
2026-02-17 10:38 36.83302 25.65744 39672 ft 441 kts 297°
2026-02-17 10:39 36.88418 25.56166 39653 ft 443 kts 298°
2026-02-17 10:39 36.91837 25.49754 39642 ft 443 kts 298°
2026-02-17 10:40 36.95251 25.43339 39641 ft 444 kts 298°
2026-02-17 10:40 36.98664 25.36913 39635 ft 444 kts 298°
2026-02-17 10:41 37.02095 25.30435 39647 ft 449 kts 298°
2026-02-17 10:41 37.05541 25.23918 39634 ft 453 kts 298°
2026-02-17 10:42 37.09024 25.17325 39635 ft 454 kts 298°
2026-02-17 10:42 37.12503 25.10726 39632 ft 453 kts 298°
2026-02-17 10:43 37.17127 25.01935 39628 ft 453 kts 298°
2026-02-17 10:43 37.20602 24.95307 39615 ft 456 kts 299°
2026-02-17 10:44 37.24086 24.88652 39603 ft 456 kts 299°
2026-02-17 10:44 37.27571 24.81983 39605 ft 456 kts 299°
2026-02-17 10:45 37.31051 24.75310 39599 ft 456 kts 299°
2026-02-17 10:45 37.34525 24.68637 39597 ft 456 kts 299°
2026-02-17 10:46 37.37995 24.61955 39580 ft 457 kts 299°
2026-02-17 10:47 37.43209 24.51887 39566 ft 458 kts 299°
2026-02-17 10:47 37.46679 24.45173 39554 ft 458 kts 298°
2026-02-17 10:48 37.50144 24.38454 39569 ft 458 kts 298°
2026-02-17 10:48 37.53602 24.31737 39541 ft 455 kts 298°
2026-02-17 10:49 37.57018 24.25086 39528 ft 454 kts 298°
2026-02-17 10:49 37.60444 24.18400 39527 ft 454 kts 298°
2026-02-17 10:50 37.63868 24.11706 39523 ft 454 kts 298°
2026-02-17 10:50 37.67287 24.05008 39533 ft 453 kts 298°
2026-02-17 10:51 37.72394 23.94980 39533 ft 452 kts 298°
2026-02-17 10:51 37.75765 23.88344 39540 ft 451 kts 298°
2026-02-17 10:52 37.79116 23.81732 39537 ft 452 kts 298°
2026-02-17 10:52 37.82506 23.75031 39531 ft 452 kts 298°
2026-02-17 10:53 37.85887 23.68333 39521 ft 451 kts 298°
2026-02-17 10:53 37.89256 23.61647 39514 ft 450 kts 298°
2026-02-17 10:54 37.92627 23.54943 39509 ft 450 kts 298°
2026-02-17 10:55 37.97644 23.44937 39548 ft 450 kts 298°
2026-02-17 10:55 38.01000 23.38228 39478 ft 449 kts 298°
2026-02-17 10:56 38.04338 23.31542 39485 ft 449 kts 298°
2026-02-17 10:56 38.07419 23.25358 39491 ft 449 kts 298°
2026-02-17 10:57 38.10731 23.18698 39487 ft 449 kts 298°
2026-02-17 10:57 38.14071 23.11967 39478 ft 453 kts 298°
2026-02-17 10:58 38.17432 23.05177 39474 ft 455 kts 298°
2026-02-17 10:58 38.20802 22.98358 39471 ft 455 kts 298°
2026-02-17 10:59 38.25848 22.88123 39472 ft 455 kts 297°
2026-02-17 10:59 38.29203 22.81292 39468 ft 455 kts 298°
2026-02-17 11:00 38.32557 22.74453 39468 ft 456 kts 298°
2026-02-17 11:00 38.35912 22.67600 39468 ft 456 kts 298°
2026-02-17 11:01 38.39270 22.60726 39464 ft 457 kts 298°
2026-02-17 11:01 38.42605 22.53888 39459 ft 457 kts 298°
2026-02-17 11:02 38.45956 22.46999 39462 ft 457 kts 298°
2026-02-17 11:03 38.50992 22.36609 39469 ft 462 kts 299°
2026-02-17 11:03 38.54380 22.29610 39471 ft 463 kts 299°
2026-02-17 11:04 38.57761 22.22611 39464 ft 463 kts 299°
2026-02-17 11:04 38.61135 22.15606 39462 ft 462 kts 299°
2026-02-17 11:05 38.64509 22.08589 39469 ft 463 kts 299°
2026-02-17 11:05 38.67880 22.01560 39475 ft 463 kts 299°
2026-02-17 11:06 38.71241 21.94535 39479 ft 463 kts 299°
2026-02-17 11:06 38.74601 21.87499 39484 ft 463 kts 299°
2026-02-17 11:07 38.79610 21.76980 39495 ft 462 kts 299°
2026-02-17 11:07 38.82942 21.69966 39486 ft 459 kts 299°
2026-02-17 11:08 38.86262 21.62957 39479 ft 460 kts 298°
2026-02-17 11:08 38.89591 21.55915 39479 ft 462 kts 298°
2026-02-17 11:09 38.92918 21.48861 39482 ft 462 kts 298°
2026-02-17 11:09 38.96245 21.41794 39491 ft 462 kts 298°
2026-02-17 11:10 38.99567 21.34721 39484 ft 462 kts 298°
2026-02-17 11:11 39.04542 21.24098 39474 ft 462 kts 298°
2026-02-17 11:11 39.07855 21.17005 39475 ft 462 kts 298°
2026-02-17 11:12 39.11162 21.09912 39482 ft 460 kts 298°
2026-02-17 11:12 39.14416 21.02915 39475 ft 457 kts 298°
2026-02-17 11:13 39.17678 20.95882 39472 ft 457 kts 298°
2026-02-17 11:13 39.18228 20.94696 39476 ft 457 kts 298°
2026-02-17 11:14 39.20315 20.90186 39480 ft 457 kts 298°
2026-02-17 11:15 39.25198 20.79611 39478 ft 459 kts 298°
2026-02-17 11:15 39.28459 20.72530 39468 ft 459 kts 298°
2026-02-17 11:16 39.31712 20.65451 39456 ft 458 kts 298°
2026-02-17 11:16 39.34958 20.58373 39462 ft 458 kts 298°
2026-02-17 11:17 39.38202 20.51283 39458 ft 458 kts 298°
2026-02-17 11:17 39.40875 20.45425 39467 ft 458 kts 298°
2026-02-17 11:18 39.44102 20.38341 39455 ft 457 kts 298°
2026-02-17 11:19 39.48939 20.27691 39462 ft 457 kts 298°
2026-02-17 11:19 39.52180 20.20538 39464 ft 458 kts 298°
2026-02-17 11:20 39.55375 20.13470 39466 ft 457 kts 298°
2026-02-17 11:20 39.58580 20.06362 39474 ft 456 kts 298°
2026-02-17 11:21 39.61784 19.99241 39468 ft 457 kts 298°
2026-02-17 11:21 39.64990 19.92098 39471 ft 458 kts 298°
2026-02-17 11:22 39.68134 19.85078 39473 ft 458 kts 298°
2026-02-17 11:22 39.71327 19.77931 39472 ft 457 kts 298°
2026-02-17 11:23 39.76084 19.67255 39469 ft 456 kts 298°
2026-02-17 11:23 39.79179 19.60291 39480 ft 456 kts 298°
2026-02-17 11:24 39.82346 19.53147 39483 ft 456 kts 298°
2026-02-17 11:24 39.85504 19.46006 39490 ft 456 kts 298°
2026-02-17 11:25 39.88659 19.38853 39490 ft 454 kts 298°
2026-02-17 11:25 39.91779 19.31769 39492 ft 454 kts 298°
2026-02-17 11:26 39.94919 19.24618 39499 ft 455 kts 298°
2026-02-17 11:27 39.99458 19.13760 39495 ft 454 kts 293°
2026-02-17 11:27 40.01485 19.07450 39494 ft 453 kts 291°
2026-02-17 11:28 40.03737 18.99786 39495 ft 451 kts 290°
2026-02-17 11:28 40.05948 18.92123 39497 ft 451 kts 290°
2026-02-17 11:29 40.08171 18.84465 39500 ft 451 kts 290°
2026-02-17 11:29 40.10403 18.76809 39493 ft 451 kts 291°
2026-02-17 11:30 40.12627 18.69166 39505 ft 449 kts 291°
2026-02-17 11:30 40.14828 18.61586 39508 ft 448 kts 291°
2026-02-17 11:31 40.18132 18.50159 39521 ft 448 kts 291°
2026-02-17 11:31 40.20329 18.42529 39542 ft 448 kts 291°
2026-02-17 11:32 40.22519 18.34903 39541 ft 447 kts 291°
2026-02-17 11:32 40.24698 18.27292 39552 ft 446 kts 291°
2026-02-17 11:33 40.26871 18.19684 39556 ft 446 kts 291°
2026-02-17 11:33 40.29038 18.12068 39555 ft 446 kts 291°
2026-02-17 11:34 40.31198 18.04459 39554 ft 446 kts 291°
2026-02-17 11:35 40.34417 17.93074 39540 ft 446 kts 291°
2026-02-17 11:35 40.36570 17.85433 39533 ft 446 kts 291°
2026-02-17 11:36 40.38714 17.77801 39540 ft 446 kts 291°
2026-02-17 11:36 40.40855 17.70154 39533 ft 446 kts 291°
2026-02-17 11:37 40.42990 17.62506 39554 ft 446 kts 291°
2026-02-17 11:37 40.45118 17.54865 39565 ft 446 kts 291°
2026-02-17 11:38 40.47243 17.47211 39586 ft 446 kts 291°
2026-02-17 11:38 40.49346 17.39611 39562 ft 446 kts 291°
2026-02-17 11:39 40.52516 17.28109 39582 ft 446 kts 291°
2026-02-17 11:39 40.54624 17.20433 39565 ft 446 kts 291°
2026-02-17 11:40 40.56724 17.12764 39560 ft 446 kts 291°
2026-02-17 11:40 40.58821 17.05085 39544 ft 446 kts 291°
2026-02-17 11:41 40.60904 16.97424 39545 ft 442 kts 291°
2026-02-17 11:41 40.62967 16.89823 39553 ft 441 kts 291°
2026-02-17 11:42 40.65023 16.82223 39562 ft 440 kts 291°
2026-02-17 11:43 40.68088 16.70848 39569 ft 441 kts 291°
2026-02-17 11:43 40.70124 16.63258 39563 ft 438 kts 291°
2026-02-17 11:44 40.72151 16.55685 39572 ft 437 kts 291°
2026-02-17 11:44 40.74169 16.48125 39582 ft 437 kts 291°
2026-02-17 11:45 40.76182 16.40561 39583 ft 437 kts 291°
2026-02-17 11:45 40.78192 16.32979 39584 ft 437 kts 291°
2026-02-17 11:46 40.80198 16.25390 39603 ft 438 kts 291°
2026-02-17 11:46 40.82198 16.17802 39621 ft 438 kts 291°
2026-02-17 11:47 40.84998 16.07136 39619 ft 438 kts 291°
2026-02-17 11:47 40.86991 15.99522 39618 ft 439 kts 291°
2026-02-17 11:48 40.88980 15.91890 39658 ft 438 kts 292°
2026-02-17 11:48 40.90958 15.84280 39658 ft 438 kts 292°
2026-02-17 11:49 40.92932 15.76663 39671 ft 438 kts 292°
2026-02-17 11:49 40.94904 15.69034 39669 ft 438 kts 291°
2026-02-17 11:50 40.96867 15.61411 39677 ft 438 kts 292°
2026-02-17 11:51 40.99798 15.49982 39683 ft 436 kts 292°
2026-02-17 11:51 41.01732 15.42417 39688 ft 436 kts 292°
2026-02-17 11:52 41.03671 15.34804 39694 ft 436 kts 292°
2026-02-17 11:52 41.05604 15.27188 39680 ft 436 kts 292°
2026-02-17 11:53 41.07526 15.19587 39698 ft 433 kts 292°
2026-02-17 11:53 41.09437 15.12015 39698 ft 433 kts 292°
2026-02-17 11:54 41.11343 15.04441 39706 ft 433 kts 292°
2026-02-17 11:54 41.13244 14.96859 39701 ft 433 kts 292°
2026-02-17 11:55 41.16064 14.85548 39713 ft 430 kts 292°
2026-02-17 11:55 41.17934 14.78029 39715 ft 428 kts 292°
2026-02-17 11:56 41.19797 14.70521 39715 ft 428 kts 292°
2026-02-17 11:56 41.21658 14.62995 39710 ft 428 kts 292°
2026-02-17 11:57 41.22585 14.59235 39527 ft 428 kts 292°
2026-02-17 11:57 41.23501 14.55505 39214 ft 421 kts 292°
2026-02-17 11:57 41.24402 14.51825 38741 ft 418 kts 293°
2026-02-17 11:57 41.25306 14.48143 38031 ft 420 kts 293°
2026-02-17 11:58 41.26211 14.44450 37311 ft 419 kts 293°
2026-02-17 11:58 41.27100 14.40821 36659 ft 418 kts 293°
2026-02-17 11:58 41.27997 14.37145 35981 ft 418 kts 293°
2026-02-17 11:59 41.29787 14.29801 34555 ft 418 kts 294°
2026-02-17 11:59 41.30685 14.26114 33799 ft 420 kts 294°
2026-02-17 11:59 41.31584 14.22414 32855 ft 422 kts 293°
2026-02-17 11:59 41.32486 14.18695 31972 ft 422 kts 294°
2026-02-17 12:00 41.33382 14.14983 31111 ft 421 kts 294°
2026-02-17 12:00 41.34276 14.11277 30245 ft 421 kts 294°
2026-02-17 12:00 41.35171 14.07565 29225 ft 421 kts 294°
2026-02-17 12:00 41.36039 14.03937 28491 ft 400 kts 294°
2026-02-17 12:01 41.36852 14.00498 27896 ft 380 kts 294°
2026-02-17 12:01 41.37627 13.97255 27337 ft 383 kts 294°
2026-02-17 12:01 41.38444 13.93872 26723 ft 385 kts 294°
2026-02-17 12:01 41.39264 13.90484 26104 ft 382 kts 294°
2026-02-17 12:02 41.40072 13.87122 25471 ft 379 kts 294°
2026-02-17 12:02 41.40866 13.83793 24825 ft 372 kts 294°
2026-02-17 12:02 41.41626 13.80568 24273 ft 363 kts 294°
2026-02-17 12:03 41.43177 13.74073 23054 ft 368 kts 294°
2026-02-17 12:03 41.43947 13.70834 22408 ft 365 kts 294°
2026-02-17 12:03 41.44577 13.67561 21909 ft 365 kts 288°
2026-02-17 12:03 41.45056 13.64227 21385 ft 367 kts 287°
2026-02-17 12:04 41.45504 13.60882 20787 ft 366 kts 286°
2026-02-17 12:04 41.45933 13.57586 20186 ft 365 kts 286°
2026-02-17 12:04 41.46360 13.54259 19557 ft 364 kts 285°
2026-02-17 12:04 41.46785 13.50927 18923 ft 364 kts 285°
2026-02-17 12:05 41.47204 13.47603 18286 ft 363 kts 284°
2026-02-17 12:05 41.47618 13.44288 17608 ft 363 kts 284°
2026-02-17 12:05 41.48039 13.40977 16950 ft 362 kts 284°
2026-02-17 12:05 41.48457 13.37670 16260 ft 361 kts 284°
2026-02-17 12:06 41.48865 13.34412 15602 ft 347 kts 284°
2026-02-17 12:06 41.49263 13.31234 14982 ft 349 kts 284°
2026-02-17 12:06 41.49663 13.28032 14331 ft 350 kts 283°
2026-02-17 12:07 41.50425 13.21855 13651 ft 312 kts 283°
2026-02-17 12:07 41.50756 13.19123 13508 ft 285 kts 284°
2026-02-17 12:07 41.51061 13.16622 13359 ft 261 kts 284°
2026-02-17 12:07 41.51342 13.14324 13194 ft 241 kts 284°
2026-02-17 12:08 41.51607 13.12163 13098 ft 240 kts 285°
2026-02-17 12:08 41.51898 13.09895 13040 ft 251 kts 285°
2026-02-17 12:08 41.52179 13.07633 12920 ft 245 kts 285°
2026-02-17 12:08 41.52358 13.05350 12800 ft 257 kts 275°
2026-02-17 12:09 41.52121 13.02945 12488 ft 264 kts 265°
2026-02-17 12:09 41.51746 13.00550 12090 ft 264 kts 264°
2026-02-17 12:09 41.51360 12.98159 11693 ft 263 kts 264°
2026-02-17 12:09 41.51099 12.96546 11435 ft 263 kts 264°
2026-02-17 12:10 41.50754 12.94415 11085 ft 262 kts 264°
2026-02-17 12:10 41.50371 12.92040 10690 ft 261 kts 264°
2026-02-17 12:10 41.49994 12.89683 10317 ft 260 kts 264°
2026-02-17 12:11 41.49242 12.84984 9560 ft 258 kts 264°
2026-02-17 12:11 41.48869 12.82647 9152 ft 257 kts 264°
2026-02-17 12:11 41.48719 12.80313 8742 ft 249 kts 278°
2026-02-17 12:11 41.48912 12.78037 8348 ft 246 kts 283°
2026-02-17 12:12 41.49165 12.75789 7956 ft 245 kts 284°
2026-02-17 12:12 41.49423 12.73567 7783 ft 241 kts 284°
2026-02-17 12:12 41.49681 12.71352 7772 ft 242 kts 284°
2026-02-17 12:12 41.49850 12.69885 7772 ft 241 kts 284°
2026-02-17 12:13 41.50099 12.67740 7773 ft 242 kts 284°
2026-02-17 12:13 41.50355 12.65520 7776 ft 242 kts 284°
2026-02-17 12:13 41.50613 12.63302 7663 ft 243 kts 284°
2026-02-17 12:13 41.50871 12.61068 7274 ft 244 kts 284°
2026-02-17 12:14 41.51128 12.58834 6878 ft 244 kts 284°
2026-02-17 12:14 41.51386 12.56598 6505 ft 243 kts 284°
2026-02-17 12:14 41.51645 12.54364 6134 ft 243 kts 284°
2026-02-17 12:15 41.52163 12.49926 5353 ft 240 kts 285°
2026-02-17 12:15 41.52671 12.47871 4973 ft 234 kts 300°
2026-02-17 12:15 41.53435 12.45967 4597 ft 232 kts 303°
2026-02-17 12:15 41.54236 12.44097 4198 ft 231 kts 303°
2026-02-17 12:16 41.55040 12.42262 3813 ft 224 kts 303°
2026-02-17 12:16 41.55824 12.40511 3401 ft 215 kts 304°
2026-02-17 12:16 41.56584 12.38819 2888 ft 211 kts 304°
2026-02-17 12:16 41.57315 12.37192 2543 ft 199 kts 304°
2026-02-17 12:17 41.58010 12.35639 2500 ft 188 kts 304°
2026-02-17 12:17 41.58664 12.34172 2503 ft 186 kts 304°
2026-02-17 12:17 41.59334 12.32699 2498 ft 186 kts 307°
2026-02-17 12:17 41.60346 12.31649 2500 ft 185 kts 333°
2026-02-17 12:18 41.61538 12.31008 2492 ft 185 kts 340°
2026-02-17 12:18 41.62744 12.30485 2484 ft 175 kts 341°
2026-02-17 12:18 41.63861 12.30021 2489 ft 164 kts 341°
2026-02-17 12:19 41.66025 12.29115 2494 ft 163 kts 340°
2026-02-17 12:19 41.67117 12.28654 2491 ft 164 kts 340°
2026-02-17 12:19 41.68163 12.28216 2440 ft 152 kts 341°
2026-02-17 12:19 41.69164 12.27799 2223 ft 150 kts 341°
2026-02-17 12:20 41.70161 12.27385 1981 ft 149 kts 341°
2026-02-17 12:20 41.71127 12.26984 1741 ft 141 kts 341°
2026-02-17 12:20 41.72026 12.26609 1526 ft 131 kts 341°
2026-02-17 12:20 41.72888 12.26249 1327 ft 130 kts 341°
2026-02-17 12:21 41.73751 12.25890 1118 ft 130 kts 341°
2026-02-17 12:21 41.74610 12.25533 926 ft 129 kts 340°
2026-02-17 12:21 41.75475 12.25178 715 ft 131 kts 338°
2026-02-17 12:21 41.76355 12.24808 529 ft 136 kts 337°
2026-02-17 12:22 41.77257 12.24430 283 ft 136 kts 338°
2026-02-17 12:22 41.78152 12.24068 95 ft 134 kts 336°
2026-02-17 12:22 41.79031 12.23700 27 ft 123 kts 339°
2026-02-17 12:23 41.80035 12.23274 27 ft 39 kts 343°
2026-02-17 12:23 41.80265 12.23202 24 ft 30 kts 354°
2026-02-17 12:23 41.80399 12.23206 21 ft 19 kts
2026-02-17 12:23 41.80502 12.23233 23 ft 4 kts 13°
2026-02-17 12:24 41.80540 12.23245 21 ft 7 kts 13°
2026-02-17 12:24 41.80593 12.23269 23 ft 9 kts 28°
2026-02-17 12:24 41.80617 12.23335 25 ft 7 kts 109°
2026-02-17 12:24 41.80568 12.23380 26 ft 11 kts 158°
2026-02-17 12:25 41.80483 12.23414 23 ft 14 kts 163°
2026-02-17 12:25 41.80376 12.23458 22 ft 18 kts 163°
2026-02-17 12:25 41.80247 12.23512 24 ft 21 kts 163°
2026-02-17 12:25 41.80146 12.23555 22 ft 2 kts 162°
2026-02-17 12:27 41.80126 12.23563 22 ft 12 kts 162°
2026-02-17 12:28 41.80038 12.23600 26 ft 14 kts 162°
2026-02-17 12:28 41.79922 12.23649 24 ft 21 kts 162°
2026-02-17 12:28 41.79839 12.23744 25 ft 16 kts 91°
2026-02-17 12:28 41.79874 12.23890 22 ft 13 kts 70°
2026-02-17 12:29 41.79889 12.23942 23 ft 0 kts 70°
2026-02-17 12:29 41.79889 12.23946 23 ft 4 kts 70°
2026-02-17 12:30 41.79916 12.24068 23 ft 17 kts 88°
2026-02-17 12:30 41.79887 12.24239 22 ft 20 kts 114°
2026-02-17 12:30 41.79791 12.24353 24 ft 8 kts 147°
2026-02-17 12:31 41.79750 12.24375 23 ft 8 kts 159°
2026-02-17 12:31 41.79687 12.24406 25 ft 8 kts 168°
2026-02-17 12:31 41.79675 12.24391 22 ft 2 kts 253°
2026-02-17 12:31 41.79661 12.24330 21 ft 8 kts 249°
2026-02-17 12:32 41.79652 12.24298 24 ft 0 kts 249°